Columbus AFB, MS

4:52 PM CST on February 23, 2018 (GMT -0600)
Columbus Air Force Base

Weather History for KCBM - July, 2013

Change the Weather History Date:

Tuesday, July 2, 2013

  Actual Average Record
Temperature  
Mean Temperature 73 °F -  
Max Temperature 84 °F 88 °F 97 °F (2012)
Min Temperature 63 °F 69 °F 58 °F (2008)
Cooling Degree Days 8    
Growing Degree Days 23 (Base 50)    
Moisture  
Dew Point 64 °F    
Average Humidity 73    
Maximum Humidity 100    
Minimum Humidity 45    
Precipitation  
Precipitation 0.00 in - - ()
Sea Level Pressure  
Sea Level Pressure 30.00 in    
Wind  
Wind Speed 3 mph (WNW)    
Max Wind Speed 9 mph    
Max Gust Speed -    
Visibility 9 miles    
Events      
Averages and records for this station are not official NWS values.
T = Trace of Precipitation, MM = Missing Value Source: NWS Daily Summary

Daily Weather History Graph

Daily Weather History Graph

Search for Another Location

Airport or City:

Trip Planner

Search our weather history database for the weather conditions in past years. The results will help you decide how hot, cold, wet, or windy it might be!

Date:

Astronomy

Jul. 02, 2013 Rise Set
Actual Time 5:47 AM CDT 8:08 PM CDT
Civil Twilight 5:18 AM CDT 8:36 PM CDT
Nautical Twilight 4:43 AM CDT 9:12 PM CDT
Astronomical Twilight 4:04 AM CDT 9:50 PM CDT
Moon 1:42 AM CDT (7/2) 3:28 PM CDT (7/2)
Length of Visible Light 15h 18m
Length of Day
14h 20m
Waning Crescent, 26% of the Moon is Illuminated
Jul 2
Waning Crescent
Jul 8
New
Jul 15
First Quarter
Jul 22
Full
Jul 29
Last Quarter

Hourly Weather History & Observations

Time (CDT) Temp. Heat Index Dew Point Humidity Pressure Visibility Wind Dir Wind Speed Gust Speed Precip Events Conditions
12:58 AM 66.0 °F - 64.0 °F 93% 29.93 in 10.0 mi NNW 1.2 mph - N/A   Clear
1:58 AM 64.6 °F - 63.7 °F 97% 29.93 in 10.0 mi NNW 1.2 mph - N/A   Clear
2:58 AM 64.8 °F - 64.0 °F 98% 29.93 in 10.0 mi WNW 4.6 mph - N/A   Clear
3:58 AM 63.9 °F - 63.5 °F 99% 29.94 in 10.0 mi WNW 2.3 mph - N/A   Clear
4:58 AM 63.7 °F - 63.7 °F 100% 29.96 in 10.0 mi WNW 1.2 mph - N/A   Clear
5:58 AM 63.5 °F - 63.5 °F 100% 29.97 in 10.0 mi NNW 1.2 mph - N/A   Clear
6:58 AM 65.5 °F - 65.5 °F 100% 30.00 in 10.0 mi Calm Calm - N/A   Clear
7:56 AM 69.8 °F - 64.4 °F 83% 29.99 in 10.0 mi NNW 5.8 mph - N/A   Clear
8:56 AM 73.4 °F - 62.6 °F 69% 30.00 in 10.0 mi Variable 2.3 mph - N/A   Clear
9:56 AM 75.2 °F - 62.6 °F 65% 30.00 in 10.0 mi West 8.1 mph - N/A   Clear
10:56 AM 77.0 °F - 62.6 °F 61% 30.01 in 10.0 mi Variable 4.6 mph - N/A   Partly Cloudy
11:58 AM 79.3 °F - 63.0 °F 57% 30.02 in 10.0 mi Variable 5.8 mph - N/A   Partly Cloudy
12:33 PM 80.6 °F 81.8 °F 62.6 °F 54% 30.01 in 10.0 mi West 2.3 mph - N/A   Mostly Cloudy
12:38 PM 80.6 °F 81.8 °F 62.6 °F 54% 30.01 in 10.0 mi West 8.1 mph - N/A   Scattered Clouds
12:48 PM 80.6 °F 81.8 °F 62.6 °F 54% 30.01 in 10.0 mi WNW 8.1 mph - N/A   Mostly Cloudy
12:58 PM 81.7 °F 82.9 °F 62.8 °F 53% 30.01 in 10.0 mi West 6.9 mph - N/A   Mostly Cloudy
1:08 PM 82.4 °F 83.4 °F 62.6 °F 51% 30.01 in 10.0 mi West 8.1 mph - N/A   Mostly Cloudy
1:58 PM 82.2 °F 83.2 °F 62.4 °F 51% 30.01 in 10.0 mi Variable 5.8 mph - N/A   Scattered Clouds
2:58 PM 82.8 °F 83.4 °F 61.7 °F 49% 30.00 in 10.0 mi WNW 9.2 mph - N/A   Partly Cloudy
3:58 PM 83.8 °F 84.1 °F 61.0 °F 46% 30.00 in 10.0 mi WNW 9.2 mph - N/A   Scattered Clouds
4:58 PM 83.3 °F 83.4 °F 59.9 °F 45% 29.99 in 10.0 mi WNW 8.1 mph - N/A   Clear
5:58 PM 83.3 °F 83.7 °F 61.0 °F 47% 30.00 in 10.0 mi West 5.8 mph - N/A   Clear
6:58 PM 81.5 °F 82.1 °F 60.4 °F 49% 30.01 in 10.0 mi North 2.3 mph - N/A   Clear
7:58 PM 76.5 °F - 67.5 °F 74% 30.01 in 10.0 mi WNW 2.3 mph - N/A   Clear
8:08 PM 75.2 °F - 68.0 °F 78% 30.01 in 4.0 mi Calm Calm - N/A   Haze
8:13 PM 75.2 °F - 68.0 °F 78% 30.01 in 2.5 mi Calm Calm - N/A   Haze
8:18 PM 73.4 °F - 68.0 °F 83% 30.01 in 4.0 mi Calm Calm - N/A   Haze
8:23 PM 73.4 °F - 68.0 °F 83% 30.01 in 7.0 mi Calm Calm - N/A   Clear
8:58 PM 73.0 °F - 67.1 °F 82% 30.01 in 10.0 mi Calm Calm - N/A   Clear
9:58 PM 70.0 °F - 65.3 °F 85% 30.02 in 10.0 mi Calm Calm - N/A   Clear
10:58 PM 68.4 °F - 66.0 °F 92% 30.05 in 10.0 mi ESE 2.3 mph - N/A   Clear
11:58 PM 66.7 °F - 64.4 °F 92% 30.04 in 10.0 mi Calm Calm - N/A   Clear